WBANNO,USDM_WEEK,LONGITUDE,LATITUDE,SMVWC_5_CM_MEAN,SMANOM_5_CM_MEAN,SMPERC_5_CM_30COUNTS,SMPERC_5_CM_70COUNTS,SMVWC_10_CM_MEAN,SMANOM_10_CM_MEAN,SMPERC_10_CM_30COUNTS,SMPERC_10_CM_70COUNTS,SMVWC_20_CM_MEAN,SMANOM_20_CM_MEAN,SMPERC_20_CM_30COUNTS,SMPERC_20_CM_70COUNTS,SMVWC_50_CM_MEAN,SMANOM_50_CM_MEAN,SMPERC_50_CM_30COUNTS,SMPERC_50_CM_70COUNTS,SMVWC_100_CM_MEAN,SMANOM_100_CM_MEAN,SMPERC_100_CM_30COUNTS,SMPERC_100_CM_70COUNTS,SMVWC_TOP_CM_MEAN,SMANOM_TOP_CM_MEAN,SMPERC_TOP_CM_30COUNTS,SMPERC_TOP_CM_70COUNTS,SMVWC_COLUMN_CM_MEAN,SMANOM_COLUMN_CM_MEAN,SMPERC_COLUMN_CM_30COUNTS,SMPERC_COLUMN_CM_70COUNTS
54932,20110517,-92.99,46.11,,,,,,,,,,,,,,,,,,,,,,,,,,,,
54932,20110518,-92.99,46.11,,,,,,,,,,,,,,,,,,,,,,,,,,,,
54932,20110519,-92.99,46.11,,,,,,,,,,,,,,,,,,,,,,,,,,,,
54932,20110520,-92.99,46.11,,,,,,,,,,,,,,,,,,,,,,,,,,,,
54932,20110521,-92.99,46.11,,,,,,,,,,,,,,,,,,,,,,,,,,,,
54932,20110522,-92.99,46.11,0.216,-0.68,0.815,0.185,0.225,-0.53,0.822,0.163,0.217,-0.9,0.844,0.141,0.172,-1.24,0.874,0.119,0.311,-0.16,0.274,0,0.22,-0.64,0.815,0.178,0.228,-1,0.837,0.148
54932,20110523,-92.99,46.11,0.237,-0.08,0.692,0.308,0.245,0.2,0.698,0.289,0.229,-0.35,0.717,0.27,0.189,-0.79,0.742,0.252,0.311,-0.15,0.252,0,0.241,0.05,0.692,0.302,0.242,-0.36,0.711,0.277
54932,20110524,-92.99,46.11,0.254,0.42,0.565,0.435,0.258,0.71,0.571,0.417,0.241,0.17,0.589,0.399,0.207,-0.32,0.613,0.381,0.312,-0.14,0.238,0,0.256,0.57,0.565,0.429,0.254,0.19,0.583,0.405
54932,20110525,-92.99,46.11,0.269,0.86,0.423,0.577,0.27,1.15,0.429,0.56,0.251,0.65,0.446,0.542,0.225,0.19,0.47,0.524,0.312,-0.13,0.226,0,0.27,1.03,0.423,0.571,0.266,0.7,0.44,0.548
54932,20110526,-92.99,46.11,0.281,1.2,0.28,0.72,0.279,1.52,0.286,0.702,0.26,1.06,0.304,0.685,0.243,0.68,0.327,0.667,0.313,-0.12,0.226,0,0.28,1.39,0.28,0.714,0.275,1.14,0.298,0.69
54932,20110527,-92.99,46.11,0.288,1.43,0.137,0.768,0.287,1.83,0.143,0.845,0.268,1.43,0.161,0.827,0.259,1.13,0.185,0.81,0.313,-0.12,0.226,0,0.287,1.67,0.137,0.851,0.283,1.51,0.155,0.833
54932,20110528,-92.99,46.11,0.294,1.61,0,0.786,0.294,2.1,0,0.923,0.275,1.76,0.018,0.97,0.275,1.56,0.042,0.952,0.313,-0.12,0.173,0,0.294,1.89,0,0.881,0.29,1.84,0.012,0.976
54932,20110529,-92.99,46.11,0.285,1.36,0,0.786,0.285,1.8,0,0.935,0.273,1.66,0,1,0.278,1.65,0,1,0.314,-0.11,0.101,0,0.285,1.61,0,0.881,0.287,1.7,0,1
54932,20110530,-92.99,46.11,0.271,1,0,0.786,0.271,1.31,0,0.935,0.267,1.39,0,1,0.274,1.57,0,1,0.314,-0.13,0.095,0,0.271,1.17,0,0.881,0.279,1.38,0,1
54932,20110531,-92.99,46.11,0.266,0.85,0,0.786,0.268,1.2,0,0.935,0.265,1.32,0,1,0.273,1.55,0,1,0.314,-0.13,0.095,0,0.267,1.04,0,0.881,0.277,1.29,0,1
54932,20110601,-92.99,46.11,0.262,0.75,0,0.786,0.266,1.15,0,0.935,0.264,1.27,0,1,0.272,1.54,0,1,0.314,-0.14,0.095,0,0.264,0.95,0,0.881,0.276,1.24,0,1
54932,20110602,-92.99,46.11,0.26,0.68,0,0.768,0.264,1.09,0,0.935,0.264,1.25,0,1,0.27,1.51,0,1,0.314,-0.15,0.095,0,0.262,0.88,0,0.881,0.274,1.19,0,1
54932,20110603,-92.99,46.11,0.259,0.67,0,0.726,0.263,1.05,0,0.929,0.264,1.24,0,1,0.269,1.5,0,1,0.314,-0.15,0.095,0,0.261,0.85,0,0.81,0.274,1.18,0,1
54932,20110604,-92.99,46.11,0.259,0.66,0,0.702,0.262,1.05,0,0.976,0.264,1.24,0,1,0.269,1.51,0,1,0.314,-0.16,0.071,0,0.26,0.85,0,0.78,0.274,1.18,0,1
54932,20110605,-92.99,46.11,0.254,0.56,0,0.56,0.26,0.96,0,0.881,0.263,1.22,0,1,0.269,1.5,0,1,0.314,-0.16,0.018,0,0.257,0.75,0,0.637,0.272,1.12,0,0.988
54932,20110606,-92.99,46.11,0.248,0.4,0.077,0.417,0.256,0.85,0,0.738,0.261,1.15,0,0.935,0.268,1.48,0,1,0.315,-0.16,0.006,0,0.252,0.6,0,0.494,0.27,1.02,0,0.845
54932,20110607,-92.99,46.11,0.236,0.09,0.22,0.274,0.246,0.5,0,0.595,0.254,0.86,0,0.792,0.262,1.34,0,1,0.315,-0.19,0.089,0,0.241,0.28,0.095,0.351,0.263,0.73,0,0.702
54932,20110608,-92.99,46.11,0.227,-0.15,0.363,0.131,0.239,0.25,0.107,0.452,0.247,0.6,0,0.649,0.257,1.19,0,1,0.315,-0.22,0.214,0,0.233,0.02,0.238,0.208,0.257,0.49,0.006,0.56
54932,20110609,-92.99,46.11,0.218,-0.36,0.506,0.006,0.232,0.03,0.25,0.31,0.241,0.36,0.101,0.506,0.251,1.03,0,1,0.314,-0.25,0.351,0,0.225,-0.2,0.381,0.065,0.251,0.26,0.149,0.417
54932,20110610,-92.99,46.11,0.21,-0.55,0.649,0,0.226,-0.16,0.393,0.173,0.235,0.13,0.244,0.363,0.245,0.89,0,0.964,0.314,-0.28,0.47,0,0.218,-0.39,0.524,0,0.246,0.05,0.292,0.274
54932,20110611,-92.99,46.11,0.202,-0.74,0.792,0,0.22,-0.36,0.536,0.048,0.23,-0.09,0.387,0.22,0.24,0.75,0,0.821,0.314,-0.3,0.613,0,0.211,-0.59,0.667,0,0.241,-0.16,0.435,0.131
54932,20110612,-92.99,46.11,0.195,-0.92,0.935,0,0.214,-0.56,0.679,0,0.224,-0.31,0.53,0.077,0.235,0.61,0,0.679,0.314,-0.34,0.75,0,0.204,-0.78,0.81,0,0.236,-0.37,0.577,0
54932,20110613,-92.99,46.11,0.188,-1.07,1,0,0.209,-0.73,0.821,0,0.219,-0.52,0.673,0,0.23,0.47,0,0.536,0.314,-0.37,0.893,0,0.198,-0.95,0.952,0,0.232,-0.55,0.72,0
54932,20110614,-92.99,46.11,0.182,-1.22,1,0,0.203,-0.9,0.964,0,0.214,-0.71,0.815,0,0.225,0.34,0,0.393,0.314,-0.39,0.952,0,0.193,-1.11,1,0,0.228,-0.73,0.863,0
54932,20110615,-92.99,46.11,0.176,-1.33,1,0,0.198,-1.06,1,0,0.209,-0.89,0.958,0,0.221,0.22,0,0.25,0.314,-0.4,0.97,0,0.187,-1.25,1,0,0.224,-0.89,1,0
54932,20110616,-92.99,46.11,0.184,-1.13,0.881,0.107,0.2,-1,0.881,0,0.206,-1,1,0,0.217,0.12,0,0.107,0.313,-0.41,0.976,0,0.192,-1.11,0.881,0.036,0.224,-0.86,0.887,0
54932,20110617,-92.99,46.11,0.19,-0.95,0.738,0.119,0.201,-0.93,0.75,0,0.205,-1.04,1,0,0.214,0.04,0,0,0.313,-0.42,1,0,0.196,-0.98,0.738,0.036,0.225,-0.82,0.744,0
54932,20110618,-92.99,46.11,0.197,-0.78,0.595,0.149,0.203,-0.84,0.679,0.018,0.204,-1.04,0.988,0,0.212,-0.01,0,0,0.313,-0.43,1,0,0.2,-0.84,0.595,0.054,0.226,-0.75,0.631,0.006
54932,20110619,-92.99,46.11,0.211,-0.42,0.452,0.292,0.212,-0.55,0.536,0.161,0.207,-0.91,0.845,0.036,0.211,-0.04,0,0,0.313,-0.42,1,0,0.212,-0.51,0.452,0.196,0.231,-0.53,0.488,0.125
54932,20110620,-92.99,46.11,0.224,-0.09,0.31,0.435,0.221,-0.24,0.393,0.304,0.212,-0.68,0.702,0.179,0.212,0.01,0,0.083,0.313,-0.42,1,0,0.223,-0.18,0.31,0.339,0.237,-0.29,0.345,0.268
54932,20110621,-92.99,46.11,0.236,0.21,0.167,0.577,0.229,0.02,0.25,0.411,0.217,-0.45,0.56,0.238,0.214,0.07,0,0.167,0.313,-0.43,1,0,0.233,0.12,0.167,0.476,0.242,-0.05,0.202,0.369
54932,20110622,-92.99,46.11,0.253,0.62,0.024,0.72,0.242,0.43,0.107,0.554,0.226,-0.11,0.417,0.357,0.219,0.23,0,0.28,0.313,-0.41,0.917,0,0.248,0.54,0.024,0.619,0.251,0.3,0.06,0.512
54932,20110623,-92.99,46.11,0.258,0.74,0,0.756,0.249,0.63,0.083,0.696,0.234,0.19,0.274,0.5,0.226,0.44,0,0.423,0.313,-0.38,0.774,0,0.254,0.7,0,0.726,0.256,0.51,0.03,0.655
54932,20110624,-92.99,46.11,0.264,0.88,0,0.887,0.255,0.82,0.071,0.839,0.24,0.45,0.131,0.643,0.233,0.66,0,0.565,0.314,-0.34,0.631,0,0.259,0.86,0,0.869,0.261,0.71,0.03,0.798
54932,20110625,-92.99,46.11,0.268,0.98,0,1,0.26,0.97,0,0.964,0.246,0.67,0,0.786,0.24,0.87,0,0.708,0.315,-0.3,0.488,0,0.264,0.99,0,0.994,0.266,0.88,0,0.935
54932,20110626,-92.99,46.11,0.263,0.88,0,0.97,0.257,0.9,0,0.946,0.248,0.76,0,0.893,0.245,1.04,0,0.851,0.315,-0.26,0.345,0,0.26,0.9,0,0.976,0.266,0.89,0,0.958
54932,20110627,-92.99,46.11,0.259,0.8,0,0.827,0.254,0.81,0,0.827,0.248,0.76,0,0.893,0.247,1.13,0,0.911,0.316,-0.22,0.202,0,0.257,0.81,0,0.833,0.265,0.87,0,0.958
54932,20110628,-92.99,46.11,0.256,0.74,0,0.685,0.253,0.77,0,0.72,0.248,0.77,0,0.952,0.249,1.2,0,0.97,0.316,-0.17,0.06,0,0.255,0.77,0,0.696,0.265,0.86,0,0.935
54932,20110629,-92.99,46.11,0.247,0.54,0,0.542,0.246,0.58,0,0.577,0.245,0.67,0,0.833,0.248,1.17,0,1,0.317,-0.15,0,0,0.247,0.56,0,0.554,0.261,0.71,0,0.792
54932,20110630,-92.99,46.11,0.237,0.32,0.071,0.399,0.239,0.37,0.024,0.435,0.241,0.54,0,0.69,0.244,1.07,0,1,0.317,-0.14,0,0,0.238,0.35,0.065,0.411,0.256,0.53,0,0.649
54932,20110701,-92.99,46.11,0.227,0.08,0.214,0.256,0.232,0.17,0.071,0.292,0.237,0.39,0,0.548,0.24,0.94,0,0.982,0.317,-0.15,0,0,0.23,0.12,0.208,0.268,0.251,0.34,0,0.506
54932,20110702,-92.99,46.11,0.227,0.08,0.286,0.185,0.235,0.25,0.143,0.22,0.237,0.41,0,0.476,0.239,0.91,0,0.917,0.317,-0.14,0,0,0.231,0.16,0.28,0.196,0.251,0.35,0.012,0.435
54932,20110703,-92.99,46.11,0.23,0.15,0.286,0.214,0.24,0.38,0.143,0.238,0.24,0.51,0,0.476,0.241,1,0,0.917,0.317,-0.13,0,0,0.235,0.26,0.28,0.214,0.254,0.45,0.012,0.435
54932,20110704,-92.99,46.11,0.231,0.19,0.286,0.351,0.242,0.45,0.143,0.357,0.241,0.55,0,0.476,0.244,1.08,0,0.917,0.317,-0.11,0,0,0.237,0.31,0.28,0.357,0.255,0.51,0.012,0.435
54932,20110705,-92.99,46.11,0.232,0.21,0.286,0.375,0.244,0.49,0.143,0.5,0.242,0.59,0,0.5,0.245,1.14,0,0.917,0.318,-0.09,0,0,0.238,0.34,0.28,0.423,0.256,0.55,0.012,0.5
54932,20110706,-92.99,46.11,0.234,0.27,0.286,0.435,0.246,0.57,0.143,0.643,0.243,0.63,0,0.643,0.247,1.19,0,0.917,0.318,-0.07,0,0,0.24,0.41,0.28,0.506,0.257,0.61,0.012,0.643
54932,20110707,-92.99,46.11,0.236,0.33,0.214,0.435,0.248,0.65,0.119,0.661,0.243,0.68,0,0.75,0.248,1.25,0,0.917,0.318,-0.04,0,0,0.242,0.49,0.214,0.506,0.259,0.67,0.012,0.714
54932,20110708,-92.99,46.11,0.239,0.4,0.071,0.435,0.25,0.72,0.071,0.661,0.244,0.72,0,0.75,0.248,1.31,0,0.935,0.319,-0.01,0,0,0.244,0.55,0.071,0.506,0.26,0.74,0.012,0.714
54932,20110709,-92.99,46.11,0.231,0.23,0.077,0.363,0.243,0.51,0,0.589,0.241,0.6,0,0.679,0.246,1.26,0,1,0.319,0,0,0,0.237,0.36,0.036,0.435,0.256,0.59,0,0.643
54932,20110710,-92.99,46.11,0.222,0.03,0.167,0.22,0.234,0.28,0,0.446,0.235,0.39,0,0.536,0.24,1.09,0,1,0.319,0,0,0,0.228,0.15,0.077,0.292,0.25,0.39,0,0.5
54932,20110711,-92.99,46.11,0.219,-0.03,0.256,0.137,0.23,0.16,0,0.327,0.231,0.25,0,0.393,0.234,0.94,0,1,0.319,-0.02,0,0,0.224,0.06,0.167,0.202,0.247,0.27,0,0.411
54932,20110712,-92.99,46.11,0.218,-0.03,0.256,0.173,0.228,0.1,0,0.185,0.228,0.16,0,0.25,0.23,0.83,0,1,0.318,-0.04,0,0,0.223,0.03,0.167,0.179,0.245,0.2,0,0.268
54932,20110713,-92.99,46.11,0.215,-0.11,0.292,0.113,0.224,0,0.012,0.042,0.225,0.06,0,0.107,0.227,0.73,0,1,0.318,-0.06,0,0,0.219,-0.06,0.196,0.095,0.242,0.11,0,0.125
54932,20110714,-92.99,46.11,0.212,-0.19,0.435,0.113,0.221,-0.1,0.143,0.024,0.223,-0.04,0.036,0,0.224,0.65,0,0.994,0.318,-0.08,0,0,0.216,-0.15,0.339,0.095,0.239,0.01,0.036,0.054
54932,20110715,-92.99,46.11,0.209,-0.24,0.577,0.113,0.219,-0.16,0.22,0.024,0.221,-0.12,0.143,0,0.222,0.58,0,0.952,0.317,-0.1,0,0,0.214,-0.21,0.482,0.095,0.238,-0.06,0.077,0.054
54932,20110716,-92.99,46.11,0.214,-0.12,0.524,0.226,0.22,-0.11,0.232,0.083,0.22,-0.16,0.179,0,0.22,0.52,0,0.881,0.317,-0.13,0,0,0.217,-0.12,0.47,0.19,0.238,-0.03,0.083,0.095
54932,20110717,-92.99,46.11,0.216,-0.04,0.435,0.238,0.221,-0.08,0.232,0.083,0.219,-0.17,0.179,0,0.218,0.5,0,0.875,0.317,-0.16,0,0,0.219,-0.06,0.429,0.19,0.238,-0.01,0.083,0.095
54932,20110718,-92.99,46.11,0.215,-0.06,0.345,0.185,0.22,-0.08,0.232,0.06,0.219,-0.19,0.179,0,0.217,0.49,0,0.875,0.317,-0.18,0,0,0.218,-0.07,0.339,0.137,0.238,-0.03,0.083,0.042
54932,20110719,-92.99,46.11,0.212,-0.14,0.351,0.125,0.219,-0.12,0.232,0.06,0.217,-0.23,0.179,0,0.216,0.47,0,0.875,0.317,-0.18,0,0,0.215,-0.13,0.339,0.095,0.236,-0.07,0.083,0.042
54932,20110720,-92.99,46.11,0.21,-0.15,0.339,0.125,0.218,-0.13,0.22,0.06,0.216,-0.25,0.208,0,0.216,0.46,0,0.875,0.316,-0.2,0,0,0.214,-0.14,0.315,0.095,0.235,-0.09,0.083,0.042
54932,20110721,-92.99,46.11,0.21,-0.15,0.339,0.125,0.217,-0.14,0.19,0.06,0.215,-0.28,0.315,0,0.215,0.44,0,0.762,0.316,-0.21,0.006,0,0.213,-0.15,0.304,0.095,0.235,-0.11,0.137,0.042
54932,20110722,-92.99,46.11,0.207,-0.21,0.339,0.125,0.214,-0.19,0.256,0.06,0.214,-0.33,0.351,0,0.214,0.41,0,0.661,0.316,-0.23,0.065,0,0.211,-0.2,0.304,0.095,0.233,-0.15,0.238,0.042
54932,20110723,-92.99,46.11,0.198,-0.42,0.458,0.012,0.208,-0.35,0.387,0,0.211,-0.43,0.458,0,0.212,0.36,0,0.589,0.316,-0.24,0.095,0,0.203,-0.4,0.423,0,0.229,-0.29,0.375,0
54932,20110724,-92.99,46.11,0.201,-0.35,0.464,0.119,0.208,-0.35,0.399,0.012,0.212,-0.39,0.464,0.024,0.211,0.32,0,0.452,0.317,-0.24,0.095,0,0.204,-0.36,0.429,0.065,0.23,-0.28,0.381,0.024
54932,20110725,-92.99,46.11,0.201,-0.33,0.464,0.119,0.207,-0.39,0.423,0.012,0.211,-0.41,0.494,0.024,0.21,0.27,0,0.31,0.317,-0.24,0.125,0,0.204,-0.37,0.429,0.065,0.229,-0.3,0.381,0.024
54932,20110726,-92.99,46.11,0.2,-0.35,0.506,0.119,0.205,-0.43,0.565,0.012,0.21,-0.44,0.637,0.024,0.208,0.21,0,0.167,0.317,-0.26,0.167,0,0.203,-0.4,0.512,0.065,0.228,-0.33,0.464,0.024
54932,20110727,-92.99,46.11,0.201,-0.33,0.595,0.149,0.204,-0.46,0.679,0.036,0.21,-0.45,0.72,0.036,0.207,0.16,0,0.024,0.317,-0.28,0.238,0,0.203,-0.4,0.619,0.095,0.228,-0.35,0.577,0.048
54932,20110728,-92.99,46.11,0.209,-0.15,0.452,0.292,0.209,-0.34,0.577,0.077,0.212,-0.36,0.577,0.036,0.206,0.13,0,0,0.317,-0.3,0.375,0,0.209,-0.25,0.488,0.238,0.231,-0.24,0.488,0.071
54932,20110729,-92.99,46.11,0.216,0.02,0.31,0.363,0.213,-0.22,0.435,0.077,0.215,-0.25,0.435,0.036,0.206,0.14,0,0,0.317,-0.31,0.446,0,0.215,-0.1,0.345,0.256,0.233,-0.13,0.345,0.071
54932,20110730,-92.99,46.11,0.223,0.19,0.167,0.363,0.218,-0.1,0.292,0.077,0.218,-0.13,0.292,0.036,0.207,0.16,0,0,0.317,-0.32,0.542,0,0.22,0.05,0.202,0.256,0.236,-0.02,0.202,0.071
54932,20110731,-92.99,46.11,0.224,0.21,0.161,0.369,0.22,-0.04,0.28,0.161,0.218,-0.11,0.286,0.077,0.207,0.17,0,0,0.317,-0.33,0.679,0,0.222,0.1,0.196,0.31,0.237,0.01,0.196,0.125
54932,20110801,-92.99,46.11,0.227,0.29,0.161,0.512,0.224,0.06,0.256,0.292,0.22,-0.03,0.256,0.101,0.208,0.21,0,0.006,0.317,-0.34,0.786,0,0.226,0.19,0.196,0.44,0.239,0.08,0.196,0.202
54932,20110802,-92.99,46.11,0.237,0.5,0.113,0.655,0.232,0.25,0.113,0.411,0.224,0.13,0.113,0.185,0.21,0.28,0,0.101,0.317,-0.34,0.821,0,0.234,0.39,0.113,0.571,0.244,0.24,0.113,0.315
54932,20110803,-92.99,46.11,0.245,0.68,0,0.768,0.24,0.45,0,0.53,0.229,0.34,0,0.315,0.216,0.5,0,0.244,0.317,-0.31,0.75,0,0.242,0.58,0,0.685,0.249,0.44,0,0.435
54932,20110804,-92.99,46.11,0.244,0.66,0,0.768,0.242,0.48,0,0.631,0.232,0.43,0,0.458,0.22,0.67,0,0.387,0.318,-0.26,0.607,0,0.243,0.6,0,0.685,0.251,0.5,0,0.554
54932,20110805,-92.99,46.11,0.243,0.64,0,0.756,0.243,0.52,0,0.756,0.234,0.51,0,0.601,0.224,0.79,0,0.53,0.319,-0.21,0.476,0,0.243,0.61,0,0.732,0.253,0.55,0,0.696
54932,20110806,-92.99,46.11,0.243,0.65,0,0.756,0.245,0.56,0,0.756,0.236,0.59,0,0.744,0.227,0.89,0,0.673,0.32,-0.16,0.351,0,0.244,0.63,0,0.732,0.254,0.6,0,0.815
54932,20110807,-92.99,46.11,0.245,0.69,0,0.75,0.25,0.67,0,0.78,0.241,0.75,0,0.821,0.232,1.05,0,0.815,0.32,-0.1,0.214,0,0.248,0.7,0,0.732,0.258,0.71,0,0.857
54932,20110808,-92.99,46.11,0.247,0.71,0,0.75,0.253,0.72,0,0.792,0.245,0.86,0,0.94,0.238,1.21,0,0.952,0.321,-0.05,0.077,0,0.25,0.74,0,0.744,0.261,0.79,0,0.923
54932,20110809,-92.99,46.11,0.244,0.64,0,0.75,0.252,0.69,0,0.815,0.247,0.9,0,1,0.241,1.31,0,1,0.322,0,0,0,0.248,0.69,0,0.756,0.261,0.79,0,0.952
54932,20110810,-92.99,46.11,0.241,0.56,0,0.75,0.249,0.63,0,0.815,0.246,0.85,0,1,0.24,1.25,0,1,0.322,0.02,0,0,0.245,0.62,0,0.756,0.26,0.73,0,0.952
54932,20110811,-92.99,46.11,0.238,0.52,0,0.69,0.248,0.6,0,0.81,0.245,0.8,0,1,0.239,1.2,0,1,0.323,0.03,0,0,0.243,0.58,0,0.738,0.258,0.7,0,0.952
54932,20110812,-92.99,46.11,0.237,0.5,0,0.631,0.246,0.58,0,0.696,0.244,0.77,0,1,0.238,1.17,0,1,0.323,0.04,0,0,0.242,0.56,0,0.673,0.258,0.68,0,0.952
54932,20110813,-92.99,46.11,0.236,0.5,0,0.631,0.246,0.58,0,0.696,0.243,0.76,0,1,0.238,1.16,0,1,0.323,0.04,0,0,0.241,0.55,0,0.673,0.257,0.67,0,0.887
54932,20110814,-92.99,46.11,0.229,0.36,0,0.512,0.238,0.42,0,0.577,0.239,0.62,0,0.988,0.235,1.07,0,1,0.323,0.03,0,0,0.233,0.41,0,0.554,0.252,0.54,0,0.768
54932,20110815,-92.99,46.11,0.222,0.25,0,0.369,0.231,0.31,0,0.435,0.234,0.5,0,0.845,0.231,0.94,0,1,0.322,0.02,0,0,0.227,0.29,0,0.411,0.248,0.43,0,0.625
54932,20110816,-92.99,46.11,0.216,0.16,0,0.226,0.226,0.22,0,0.292,0.231,0.4,0,0.702,0.227,0.84,0,1,0.322,0,0,0,0.221,0.19,0,0.268,0.244,0.34,0,0.482
54932,20110817,-92.99,46.11,0.217,0.16,0,0.167,0.225,0.19,0,0.232,0.229,0.36,0,0.643,0.224,0.75,0,1,0.322,-0.01,0,0,0.221,0.18,0,0.208,0.243,0.31,0,0.423
54932,20110818,-92.99,46.11,0.22,0.2,0,0.226,0.226,0.2,0,0.238,0.229,0.34,0,0.643,0.223,0.71,0,1,0.321,-0.02,0,0,0.223,0.21,0,0.226,0.244,0.31,0,0.423
54932,20110819,-92.99,46.11,0.222,0.23,0,0.292,0.226,0.2,0,0.226,0.229,0.33,0,0.601,0.222,0.67,0,1,0.321,-0.02,0,0,0.224,0.22,0,0.244,0.244,0.3,0,0.339
54932,20110820,-92.99,46.11,0.223,0.23,0,0.292,0.226,0.19,0,0.226,0.229,0.31,0,0.458,0.221,0.64,0,1,0.321,-0.02,0,0,0.225,0.21,0,0.244,0.244,0.29,0,0.286
54932,20110821,-92.99,46.11,0.224,0.23,0,0.292,0.226,0.18,0,0.226,0.228,0.3,0,0.327,0.22,0.61,0,1,0.321,-0.03,0,0,0.225,0.21,0,0.244,0.244,0.27,0,0.286
54932,20110822,-92.99,46.11,0.224,0.23,0,0.292,0.227,0.18,0,0.226,0.228,0.28,0,0.327,0.22,0.59,0,1,0.321,-0.03,0,0,0.226,0.21,0,0.244,0.244,0.27,0,0.286
54932,20110823,-92.99,46.11,0.225,0.24,0,0.292,0.227,0.18,0,0.226,0.228,0.28,0,0.327,0.219,0.57,0,1,0.321,-0.03,0,0,0.226,0.21,0,0.244,0.244,0.27,0,0.286
54932,20110824,-92.99,46.11,0.223,0.2,0,0.208,0.225,0.14,0,0.143,0.227,0.24,0,0.244,0.219,0.55,0,1,0.321,-0.02,0,0,0.224,0.17,0,0.161,0.243,0.24,0,0.202
54932,20110825,-92.99,46.11,0.219,0.13,0,0.065,0.222,0.08,0,0,0.225,0.19,0,0.101,0.217,0.51,0,1,0.321,-0.03,0,0,0.221,0.11,0,0.018,0.241,0.18,0,0.06
54932,20110826,-92.99,46.11,0.216,0.08,0,0,0.219,0.03,0,0,0.223,0.14,0,0,0.216,0.48,0,1,0.321,-0.04,0,0,0.218,0.06,0,0,0.239,0.14,0,0
54932,20110827,-92.99,46.11,0.214,0.04,0,0,0.217,-0.01,0,0,0.221,0.09,0,0,0.214,0.44,0,0.982,0.321,-0.05,0,0,0.215,0.02,0,0,0.237,0.1,0,0
54932,20110828,-92.99,46.11,0.211,0.01,0,0,0.214,-0.06,0,0,0.219,0.04,0,0,0.213,0.41,0,0.869,0.321,-0.05,0,0,0.213,-0.02,0,0,0.236,0.06,0,0
54932,20110829,-92.99,46.11,0.209,-0.03,0,0,0.211,-0.12,0,0,0.217,-0.01,0,0,0.212,0.38,0,0.726,0.321,-0.05,0,0,0.21,-0.07,0,0,0.234,0.01,0,0
54932,20110830,-92.99,46.11,0.207,-0.08,0,0,0.209,-0.17,0,0,0.215,-0.07,0,0,0.21,0.35,0,0.583,0.321,-0.05,0,0,0.208,-0.12,0,0,0.232,-0.04,0,0
54932,20110831,-92.99,46.11,0.202,-0.15,0.006,0,0.206,-0.22,0.018,0,0.213,-0.12,0,0,0.209,0.31,0,0.44,0.321,-0.04,0,0,0.204,-0.18,0.018,0,0.23,-0.09,0,0
54932,20110901,-92.99,46.11,0.203,-0.14,0.006,0,0.206,-0.22,0.018,0,0.211,-0.17,0,0,0.207,0.28,0,0.298,0.321,-0.04,0,0,0.205,-0.17,0.018,0,0.23,-0.1,0,0
54932,20110902,-92.99,46.11,0.204,-0.13,0.006,0,0.206,-0.22,0.018,0,0.21,-0.2,0,0,0.206,0.25,0,0.155,0.321,-0.05,0,0,0.205,-0.17,0.018,0,0.229,-0.11,0,0
54932,20110903,-92.99,46.11,0.204,-0.12,0.006,0,0.206,-0.23,0.018,0,0.209,-0.23,0,0,0.205,0.23,0,0.03,0.321,-0.05,0,0,0.205,-0.17,0.018,0,0.229,-0.12,0,0
54932,20110904,-92.99,46.11,0.205,-0.11,0.006,0,0.206,-0.23,0.018,0,0.208,-0.24,0,0,0.204,0.21,0,0,0.321,-0.05,0,0,0.205,-0.16,0.018,0,0.229,-0.12,0,0
54932,20110905,-92.99,46.11,0.205,-0.11,0.006,0,0.206,-0.24,0.018,0,0.207,-0.25,0,0,0.204,0.2,0,0,0.321,-0.04,0,0,0.205,-0.16,0.018,0,0.229,-0.12,0,0
54932,20110906,-92.99,46.11,0.205,-0.1,0.006,0,0.206,-0.24,0.018,0,0.207,-0.26,0,0,0.203,0.18,0,0,0.321,-0.05,0,0,0.205,-0.16,0.018,0,0.228,-0.13,0,0
54932,20110907,-92.99,46.11,0.204,-0.12,0.006,0,0.205,-0.26,0,0,0.206,-0.27,0,0,0.202,0.16,0,0,0.321,-0.05,0,0,0.204,-0.18,0.036,0,0.228,-0.15,0,0
54932,20110908,-92.99,46.11,0.199,-0.21,0.137,0,0.201,-0.34,0.119,0,0.205,-0.3,0.119,0,0.202,0.14,0,0,0.321,-0.05,0,0,0.2,-0.27,0.179,0,0.225,-0.21,0,0
54932,20110909,-92.99,46.11,0.194,-0.29,0.28,0,0.197,-0.39,0.262,0,0.204,-0.34,0.262,0,0.201,0.11,0,0,0.32,-0.06,0,0,0.196,-0.34,0.321,0,0.223,-0.26,0.071,0
54932,20110910,-92.99,46.11,0.19,-0.37,0.423,0,0.194,-0.45,0.405,0,0.202,-0.39,0.405,0,0.199,0.07,0,0,0.32,-0.06,0,0,0.192,-0.41,0.464,0,0.221,-0.32,0.214,0
54932,20110911,-92.99,46.11,0.186,-0.44,0.565,0,0.191,-0.49,0.548,0,0.2,-0.45,0.548,0,0.198,0.03,0,0,0.32,-0.08,0,0,0.189,-0.47,0.607,0,0.219,-0.37,0.357,0
54932,20110912,-92.99,46.11,0.182,-0.5,0.708,0,0.188,-0.54,0.69,0,0.197,-0.5,0.69,0,0.197,-0.02,0,0,0.319,-0.09,0,0,0.185,-0.53,0.75,0,0.217,-0.42,0.5,0
54932,20110913,-92.99,46.11,0.178,-0.56,0.851,0,0.185,-0.58,0.833,0,0.195,-0.56,0.833,0,0.195,-0.07,0,0,0.319,-0.11,0,0,0.182,-0.58,0.893,0,0.214,-0.47,0.643,0
54932,20110914,-92.99,46.11,0.175,-0.62,0.988,0,0.182,-0.63,0.976,0,0.192,-0.61,0.976,0,0.194,-0.12,0,0,0.319,-0.12,0,0,0.178,-0.64,1,0,0.212,-0.52,0.786,0
54932,20110915,-92.99,46.11,0.171,-0.68,1,0,0.179,-0.66,1,0,0.189,-0.65,1,0,0.192,-0.17,0,0,0.318,-0.13,0,0,0.175,-0.68,1,0,0.21,-0.56,0.929,0
54932,20110916,-92.99,46.11,0.168,-0.73,1,0,0.176,-0.7,1,0,0.186,-0.68,1,0,0.191,-0.22,0,0,0.318,-0.15,0,0,0.172,-0.73,1,0,0.208,-0.61,1,0
54932,20110917,-92.99,46.11,0.165,-0.77,1,0,0.174,-0.73,1,0,0.184,-0.71,1,0,0.189,-0.27,0,0,0.317,-0.17,0.012,0,0.169,-0.76,1,0,0.206,-0.65,1,0
54932,20110918,-92.99,46.11,0.163,-0.81,1,0,0.172,-0.75,1,0,0.182,-0.74,1,0,0.187,-0.31,0.03,0,0.316,-0.2,0.143,0,0.167,-0.79,1,0,0.204,-0.68,1,0
54932,20110919,-92.99,46.11,0.162,-0.82,1,0,0.17,-0.77,1,0,0.179,-0.76,1,0,0.186,-0.35,0.048,0,0.315,-0.23,0.286,0,0.166,-0.81,1,0,0.203,-0.71,1,0
54932,20110920,-92.99,46.11,0.162,-0.82,1,0,0.17,-0.77,1,0,0.178,-0.77,1,0,0.185,-0.39,0.113,0,0.314,-0.26,0.429,0,0.166,-0.81,1,0,0.202,-0.72,1,0
54932,20110921,-92.99,46.11,0.162,-0.81,1,0,0.17,-0.77,1,0,0.177,-0.78,1,0,0.183,-0.42,0.202,0,0.313,-0.3,0.571,0,0.166,-0.81,1,0,0.201,-0.73,1,0
54932,20110922,-92.99,46.11,0.166,-0.76,0.911,0,0.171,-0.75,1,0,0.176,-0.78,1,0,0.182,-0.45,0.321,0,0.312,-0.33,0.714,0,0.169,-0.77,0.97,0,0.202,-0.72,1,0
54932,20110923,-92.99,46.11,0.17,-0.7,0.875,0,0.173,-0.73,1,0,0.176,-0.79,1,0,0.182,-0.47,0.351,0,0.311,-0.36,0.857,0,0.171,-0.73,0.964,0,0.202,-0.7,1,0
54932,20110924,-92.99,46.11,0.173,-0.66,0.875,0,0.174,-0.7,1,0,0.176,-0.78,1,0,0.181,-0.47,0.375,0,0.31,-0.38,0.988,0,0.174,-0.7,0.964,0,0.203,-0.69,1,0
54932,20110925,-92.99,46.11,0.176,-0.62,0.875,0,0.176,-0.68,1,0,0.176,-0.78,1,0,0.181,-0.48,0.351,0,0.31,-0.4,1,0,0.176,-0.67,0.964,0,0.204,-0.67,1,0
54932,20110926,-92.99,46.11,0.177,-0.6,0.875,0,0.177,-0.67,1,0,0.176,-0.77,1,0,0.181,-0.48,0.339,0,0.309,-0.42,1,0,0.177,-0.66,0.964,0,0.204,-0.66,1,0
54932,20110927,-92.99,46.11,0.178,-0.6,0.875,0,0.177,-0.67,1,0,0.176,-0.76,1,0,0.18,-0.49,0.333,0,0.308,-0.43,1,0,0.178,-0.65,0.964,0,0.204,-0.65,1,0
54932,20110928,-92.99,46.11,0.179,-0.6,0.875,0,0.177,-0.67,1,0,0.177,-0.76,1,0,0.18,-0.5,0.381,0,0.307,-0.44,1,0,0.178,-0.65,0.964,0,0.204,-0.66,1,0
54932,20110929,-92.99,46.11,0.176,-0.66,0.964,0,0.176,-0.7,1,0,0.177,-0.77,1,0,0.18,-0.51,0.405,0,0.307,-0.44,1,0,0.176,-0.7,0.994,0,0.203,-0.68,1,0
54932,20110930,-92.99,46.11,0.173,-0.72,1,0,0.175,-0.73,1,0,0.177,-0.78,1,0,0.18,-0.52,0.518,0,0.306,-0.45,1,0,0.174,-0.74,1,0,0.202,-0.71,1,0
54932,20111001,-92.99,46.11,0.171,-0.78,1,0,0.174,-0.77,1,0,0.176,-0.8,1,0,0.18,-0.55,0.637,0,0.306,-0.45,1,0,0.172,-0.79,1,0,0.201,-0.73,1,0
54932,20111002,-92.99,46.11,0.169,-0.84,1,0,0.173,-0.81,1,0,0.176,-0.84,1,0,0.18,-0.57,0.774,0,0.306,-0.46,1,0,0.171,-0.84,1,0,0.201,-0.76,1,0
54932,20111003,-92.99,46.11,0.168,-0.9,1,0,0.172,-0.85,1,0,0.176,-0.89,1,0,0.18,-0.59,0.911,0,0.305,-0.48,1,0,0.17,-0.89,1,0,0.2,-0.79,1,0
54932,20111004,-92.99,46.11,0.166,-0.99,1,0,0.171,-0.91,1,0,0.175,-0.94,1,0,0.179,-0.61,0.994,0,0.304,-0.49,1,0,0.169,-0.96,1,0,0.199,-0.82,1,0
54932,20111005,-92.99,46.11,0.165,-1.09,1,0,0.17,-0.97,1,0,0.175,-0.99,1,0,0.179,-0.63,1,0,0.304,-0.52,1,0,0.167,-1.04,1,0,0.199,-0.85,1,0
54932,20111006,-92.99,46.11,0.164,-1.19,1,0,0.169,-1.03,1,0,0.175,-1.05,1,0,0.178,-0.65,1,0,0.303,-0.55,1,0,0.167,-1.12,1,0,0.198,-0.88,1,0
54932,20111007,-92.99,46.11,0.163,-1.29,1,0,0.169,-1.09,1,0,0.174,-1.1,1,0,0.178,-0.67,1,0,0.303,-0.6,1,0,0.166,-1.2,1,0,0.197,-0.91,1,0
54932,20111008,-92.99,46.11,0.162,-1.41,1,0,0.168,-1.16,1,0,0.174,-1.17,1,0,0.178,-0.69,1,0,0.302,-0.64,1,0,0.165,-1.3,1,0,0.197,-0.95,1,0
54932,20111009,-92.99,46.11,0.161,-1.53,1,0,0.168,-1.23,1,0,0.173,-1.25,1,0,0.177,-0.71,1,0,0.301,-0.67,1,0,0.164,-1.4,1,0,0.196,-0.99,1,0
54932,20111010,-92.99,46.11,0.165,-1.52,1,0,0.17,-1.25,1,0,0.173,-1.32,1,0,0.177,-0.72,1,0,0.301,-0.71,1,0,0.168,-1.41,1,0,0.197,-1.01,1,0
54932,20111011,-92.99,46.11,0.169,-1.52,1,0,0.171,-1.28,1,0,0.173,-1.4,1,0,0.177,-0.73,1,0,0.3,-0.75,1,0,0.17,-1.42,1,0,0.198,-1.02,1,0
54932,20111012,-92.99,46.11,0.173,-1.51,1,0,0.173,-1.3,1,0,0.173,-1.49,1,0,0.177,-0.74,1,0,0.3,-0.78,1,0,0.173,-1.43,1,0,0.199,-1.04,1,0
54932,20111013,-92.99,46.11,0.182,-1.32,0.911,0.06,0.177,-1.26,1,0,0.174,-1.54,1,0,0.177,-0.75,1,0,0.3,-0.79,1,0,0.18,-1.31,0.917,0,0.202,-1.01,1,0